Weather observations for the past three days for
Winona, Winona Municipal Airport-Max Conrad Field
Imperial (Metric)
Date Time (cdt) Wind (mph) Vis. (mi.) Weather Sky Cond. Temperature (ºF) Relative Humidity Wind Chill (°F) Heat Index (°F) Pressure Precipitation (in)
Air Dwpt 6 hour altimeter (in) sea level (mb) 1 hr 3 hr 6 hr
Max. Min.
17 06:15 NW 3 10.00 Fair CLR 60.8 59 94% 30.03 0.0
17 05:55 NW 6 10.00 Fair CLR 60.8 59 94% 30.02 0.0
17 05:35 NW 5 10.00 Fair CLR 60.8 59 94% 30.01 0.0
17 05:15 NW 5 10.00 Fair CLR 60.8 59 94% 30 0.0
17 04:55 NW 5 10.00 Fair CLR 62.6 59 88% 29.99 0.0
17 04:35 Calm 10.00 Fair CLR 62.6 59 88% 29.99 0.0
17 04:15 Calm 10.00 Fair CLR 62.6 59 88% 29.98 0.0
17 03:55 W 3 10.00 Fair CLR 62.6 59 88% 29.97 0.0
17 03:35 Calm 10.00 Fair CLR 62.6 59 88% 29.97 0.0
17 03:15 NW 5 10.00 Fair CLR 62.6 59 88% 29.97 0.0
17 02:55 NW 6 10.00 Fair CLR 62.6 59 88% 29.97 0.0
17 02:35 NW 7 10.00 Fair CLR 62.6 60.8 94% 29.97 0.0
17 02:15 NW 5 10.00 Fair CLR 64.4 60.8 88% 29.96 0.0
17 01:55 NW 3 10.00 Fair CLR 66.2 59 78% 29.96 0.0
17 01:35 W 3 10.00 Fair CLR 66.2 59 78% 29.96 0.0
17 01:15 Calm 10.00 Fair CLR 66.2 62.6 88% 29.96 0.0
17 00:55 NW 6 10.00 Fair CLR 64.4 60.8 88% 29.96 0.0
17 00:35 NW 6 10.00 Partly Cloudy SCT070 66.2 60.8 83% 29.95 0.0
17 00:15 NW 6 10.00 Partly Cloudy SCT070 64.4 62.6 94% 29.94 0.0
16 23:55 Calm 10.00 Fair CLR 64.4 62.6 94% 29.94 0.0
16 23:35 Calm 10.00 Fair CLR 66.2 62.6 88% 29.94 0.0
16 23:15 NW 3 10.00 Fair CLR 64.4 62.6 94% 29.94 0.0
16 22:55 Calm 10.00 Fair CLR 66.2 62.6 88% 29.94 0.0
16 22:35 Calm 10.00 Fair CLR 68 62.6 83% 29.94 0.0
16 22:15 Calm 10.00 Fair CLR 68 62.6 83% 29.93 0.0
16 21:55 NW 3 10.00 Fair CLR 68 62.6 83% 29.93 0.0
16 21:35 NW 3 7.00 Fair CLR 68 62.6 83% 29.92 0.0
16 21:15 Calm 10.00 Fair CLR 69.8 60.8 73% 29.92 0.0
16 20:55 Calm 10.00 Fair CLR 69.8 62.6 78% 29.91 0.0
16 20:35 Calm 10.00 Fair CLR 73.4 62.6 69% 0 0.0
16 20:15 NW 6 10.00 Fair CLR 73.4 62.6 69% 29.9 0.0
16 19:55 NW 5 10.00 Fair CLR 73.4 62.6 69% 29.9 0.0
16 19:35 NW 7 10.00 Fair CLR 73.4 60.8 65% 29.9 0.0
16 19:15 NW 6 10.00 Partly Cloudy SCT070 73.4 60.8 65% 29.9 0.0
16 18:55 NW 7 10.00 Mostly Cloudy SCT070 BKN100 77 60.8 57% 79 29.89 0.0
16 18:35 N 6 10.00 Overcast OVC100 77 59 54% 79 29.9 0.0
16 18:15 N 9 10.00 Mostly Cloudy SCT050 SCT070 BKN090 77 59 54% 79 29.9 0.0
16 17:55 NW 12 G 17 10.00 Partly Cloudy SCT090 78.8 59 51% 80 29.89 0.0
16 17:35 NW 8 10.00 Fair CLR 78.8 59 51% 80 29.89 0.0
16 17:15 NW 9 10.00 Partly Cloudy SCT120 78.8 59 51% 80 29.9 0.0
16 16:55 NW 7 10.00 Fair CLR 77 59 54% 79 29.9 0.0
16 16:35 W 7 10.00 Fair CLR 78.8 59 51% 80 29.9 0.0
16 16:15 NW 9 10.00 Partly Cloudy SCT065 78.8 57.2 48% 80 29.9 0.0
16 15:55 NW 8 10.00 Partly Cloudy SCT055 SCT065 80.6 59 48% 81 29.91 0.0
16 15:35 N 8 10.00 Fair CLR 80.6 57.2 45% 81 29.9 0.0
16 15:15 NW 9 10.00 Fair CLR 78.8 55.4 45% 79 29.89 0.0
16 14:55 N 13 G 17 10.00 Fair CLR 80.6 60.8 51% 81 29.88 0.0
16 14:35 NW 8 10.00 Fair CLR 78.8 59 51% 80 29.88 0.0
16 14:15 NW 9 10.00 Fair CLR 78.8 59 51% 80 29.87 0.0
16 13:55 NW 12 G 17 10.00 Fair CLR 80.6 60.8 51% 81 29.86 0.0
16 13:35 N 6 G 20 10.00 Fair CLR 78.8 60.8 54% 80 29.87 0.0
16 13:28 NW 10 G 20 10.00 Fair CLR 78.8 60.8 54% 80 29.87 0.0
16 13:09 NW 12 10.00 Fair CLR 78.8 60.8 54% 80 29.87 0.0
16 12:52 W 7 10.00 Fair CLR 78.8 62.6 58% 80 29.88 0.0
16 12:27 N 5 10.00 Fair CLR 77 62.6 61% 79 29.87 0.0
16 12:08 N 7 10.00 Fair CLR 78.8 62.6 58% 80 29.87 0.0
16 11:47 NW 5 10.00 Fair CLR 77 62.6 61% 79 29.87 0.0
16 11:28 N 5 10.00 Partly Cloudy SCT030 SCT060 77 64.4 65% 79 29.87 0.0
16 10:57 Calm 10.00 Fair CLR 77 64.4 65% 79 29.86 0.0
16 05:10 NW 6 0.00 NULL NULL 69.8 68 94% 29.79 0.0
16 04:15 NW 5 10.00 Partly Cloudy SCT009 69.8 68 94% 29.77 0.0
16 03:55 NW 6 10.00 Fair CLR 69.8 68 94% 29.77 0.0
16 03:35 NW 5 10.00 Fair CLR 71.6 68 88% 29.76 0.0
16 03:15 NW 7 10.00 Fair CLR 71.6 68 88% 29.76 0.0
16 02:55 NW 7 10.00 Fair CLR 71.6 69.8 94% 29.76 0.0
16 02:35 NW 6 10.00 Partly Cloudy SCT055 SCT075 71.6 69.8 94% 29.75 0.0
16 02:15 NW 7 10.00 Partly Cloudy SCT055 SCT080 SCT085 73.4 69.8 89% 29.75 0.0
16 01:55 Calm 10.00 Mostly Cloudy SCT008 BKN055 BKN080 73.4 71.6 94% 29.75 0.0
16 01:35 NW 3 10.00 Mostly Cloudy BKN050 73.4 69.8 89% 29.75 0.0
16 01:15 NW 3 10.00 Partly Cloudy SCT030 SCT039 SCT049 73.4 71.6 94% 29.75 0.0
16 00:55 NW 3 10.00 Partly Cloudy SCT026 SCT033 SCT039 73.4 71.6 94% 29.75 0.0
16 00:35 N 3 10.00 Partly Cloudy SCT080 73.4 71.6 94% 29.74 0.0
16 00:15 Calm 10.00 Overcast OVC080 73.4 71.6 94% 29.74 0.0
15 23:55 Calm 10.00 Overcast OVC080 73.4 71.6 94% 29.74 0.0
15 23:35 Calm 10.00 Mostly Cloudy BKN070 BKN085 75.2 71.6 89% 75 29.73 0.0
15 23:15 Calm 10.00 Partly Cloudy SCT085 75.2 71.6 89% 75 29.73 0.0
15 22:55 Calm 10.00 Fair CLR 77 71.6 83% 78 29.72 0.0
15 22:35 Calm 10.00 Fair CLR 77 71.6 83% 78 29.71 0.0
15 22:15 NW 5 10.00 Fair CLR 77 71.6 83% 78 29.71 0.0
15 21:55 NW 5 10.00 Fair CLR 78.8 71.6 79% 82 29.7 0.0
15 21:35 NW 3 7.00 Partly Cloudy SCT033 78.8 73.4 84% 82 29.7 0.0
15 21:15 Calm 10.00 Partly Cloudy SCT033 78.8 73.4 84% 82 29.69 0.0
15 20:55 NW 3 10.00 Partly Cloudy SCT040 SCT047 SCT060 78.8 73.4 84% 82 29.69 0.0
15 20:35 Calm 10.00 Partly Cloudy SCT038 SCT045 80.6 73.4 79% 85 29.69 0.0
15 20:15 Calm 10.00 Partly Cloudy SCT042 80.6 73.4 79% 85 29.68 0.0
15 19:55 Calm 10.00 Partly Cloudy SCT044 80.6 75.2 84% 86 29.67 0.0
15 19:35 Calm 10.00 Fair CLR 82.4 75.2 79% 89 29.68 0.0
15 19:15 Calm 10.00 Fair CLR 82.4 73.4 74% 88 29.66 0.0
15 18:55 Calm 10.00 Fair CLR 84.2 73.4 70% 91 29.66 0.0
15 18:35 Calm 10.00 Fair CLR 84.2 73.4 70% 91 29.68 0.0
15 18:15 Calm 10.00 Fair CLR 84.2 73.4 70% 91 29.67 0.0
15 17:55 Calm 10.00 Fair CLR 82.4 73.4 74% 88 29.69 0.0
15 17:35 Calm 10.00 Fair CLR 82.4 73.4 74% 88 29.65 0.0
15 17:15 SE 5 10.00 Partly Cloudy SCT042 SCT050 80.6 75.2 84% 86 29.65 0.0
15 16:55 E 3 10.00 Light Rain SCT032 SCT042 BKN050 78.8 73.4 84% 82 29.69 0.0
15 16:35 Calm 10.00 Light Drizzle SCT060 SCT065 BKN090 77 71.6 83% 78 29.73 0.0
15 16:15 Calm 10.00 Partly Cloudy SCT080 SCT110 78.8 73.4 84% 82 29.75 0.0
15 15:55 Calm 10.00 Light Rain SCT055 SCT065 SCT120 80.6 71.6 74% 85 29.74 0.0
15 15:35 Calm 10.00 Partly Cloudy SCT120 80.6 71.6 74% 85 29.75 0.0
15 15:15 W 3 10.00 Mostly Cloudy BKN120 80.6 69.8 70% 84 29.76 0.0
15 14:55 Calm 10.00 Partly Cloudy SCT120 80.6 69.8 70% 84 29.75 0.0
15 14:35 Calm 10.00 Fair CLR 80.6 69.8 70% 84 29.75 0.0
15 14:15 SW 6 10.00 Fair CLR 80.6 68 66% 83 29.74 0.0
15 13:55 S 3 10.00 Fair CLR 80.6 68 66% 83 29.74 0.0
15 13:35 S 6 10.00 Fair CLR 80.6 68 66% 83 29.74 0.0
15 13:15 SW 5 10.00 Fair CLR 80.6 68 66% 83 29.75 0.0
15 12:55 S 3 10.00 Fair CLR 80.6 69.8 70% 84 29.76 0.0
15 12:35 S 5 10.00 Fair CLR 78.8 68 70% 81 29.76 0.0
15 12:15 S 3 10.00 Fair CLR 77 68 74% 79 29.76 0.0
15 11:55 SE 7 10.00 Fair CLR 75.2 69.8 83% 75 29.77 0.0
15 11:35 SE 6 10.00 Fair CLR 73.4 69.8 89% 29.78 0.0
15 11:15 SE 7 10.00 Fair CLR 71.6 69.8 94% 29.79 0.0
15 10:55 SE 3 7.00 Light Rain SCT033 SCT042 SCT055 69.8 69.8 100% 29.84 0.0 0.06
15 10:35 N 3 10.00 Light Rain SCT026 SCT040 BKN048 69.8 69.8 100% 29.89 0.0 0.05
15 10:15 NW 8 10.00 Light Rain BKN041 OVC050 69.8 68 94% 29.94 0.0 0.03
15 09:55 NW 7 5.00 Rain SCT005 BKN047 OVC060 71.6 71.6 100% 29.95 0.0 0.07
15 09:35 N 8 4.00 Rain SCT011 SCT055 BKN070 71.6 69.8 94% 29.94 0.0 0.02
15 09:15 Calm 5.00 Light Rain SCT070 SCT090 SCT120 71.6 69.8 94% 29.88 0.0
15 08:55 Calm 5.00 Fog/Mist BKN001 69.8 69.8 100% 29.87 0.0
15 08:35 Calm 0.50 Fog OVC001 71.6 69.8 94% 29.86 0.0
15 08:15 Calm 0.75 Fog/Mist OVC001 71.6 69.8 94% 29.84 0.0
15 07:55 NW 3 1.00 Fog/Mist OVC001 71.6 69.8 94% 29.84 0.0
15 07:35 Calm 0.25 Fog OVC001 69.8 69.8 100% 29.82 0.0
15 07:15 Calm 0.15 Fog OVC001 69.8 69.8 100% 29.83 0.0
15 06:55 Calm 0.15 Fog OVC001 69.8 69.8 100% 29.83 0.0
15 06:35 Calm 0.15 Fog OVC001 69.8 69.8 100% 29.82 0.0
15 06:15 Calm 0.25 Fog OVC001 69.8 69.8 100% 29.82 0.0
15 05:55 Calm 0.15 Fog OVC001 69.8 69.8 100% 29.81 0.0
15 05:35 Calm 0.25 Fog OVC001 69.8 69.8 100% 29.82 0.0
15 05:15 Calm 0.25 Fog OVC001 69.8 69.8 100% 29.82 0.0
15 04:55 Calm 0.25 Fog OVC001 69.8 69.8 100% 29.82 0.0
15 04:35 Calm 0.25 Fog OVC001 69.8 68 94% 29.83 0.0
15 04:15 Calm 0.75 Fog/Mist OVC001 69.8 69.8 100% 29.83 0.0
15 03:55 Calm 0.25 Fog OVC001 69.8 69.8 100% 29.83 0.0
15 03:35 Calm 0.25 Fog OVC001 69.8 69.8 100% 29.84 0.0
15 03:15 NW 3 0.25 Fog OVC001 71.6 71.6 100% 29.84 0.0
15 02:55 Calm 0.25 Fog OVC001 71.6 71.6 100% 29.84 0.0
15 02:35 Calm 0.25 Fog OVC001 71.6 71.6 100% 29.85 0.0
15 02:15 Calm 0.25 Fog OVC001 71.6 71.6 100% 29.86 0.0
15 01:55 Calm 0.50 Fog OVC001 71.6 71.6 100% 29.86 0.0
15 01:35 Calm 3.00 Fog/Mist OVC001 71.6 69.8 94% 29.86 0.0
15 01:15 Calm 7.00 Partly Cloudy SCT001 71.6 71.6 100% 29.87 0.0
15 00:55 Calm 5.00 Fog/Mist SCT001 71.6 71.6 100% 29.87 0.0
15 00:35 Calm 7.00 Mostly Cloudy BKN001 71.6 71.6 100% 29.86 0.0
15 00:15 Calm 7.00 Fair CLR 73.4 71.6 94% 29.86 0.0
14 23:55 Calm 7.00 Fair CLR 73.4 71.6 94% 29.85 0.0
14 23:35 Calm 10.00 Fair CLR 73.4 71.6 94% 29.85 0.0
14 23:15 Calm 10.00 Fair CLR 73.4 73.4 100% 29.85 0.0
14 22:55 Calm 7.00 Fair CLR 73.4 73.4 100% 29.85 0.0
14 22:35 Calm 10.00 Fair CLR 75.2 73.4 94% 74 29.85 0.0
14 22:15 Calm 10.00 Fair CLR 75.2 73.4 94% 74 29.85 0.0
14 21:55 Calm 10.00 Fair CLR 77 73.4 89% 78 29.85 0.0
14 21:35 Calm 10.00 Fair CLR 77 73.4 89% 78 29.85 0.0
14 21:15 Calm 10.00 Fair CLR 78.8 73.4 84% 82 29.85 0.0
14 20:55 Calm 10.00 Fair CLR 78.8 73.4 84% 82 29.84 0.0
14 20:35 Calm 10.00 Fair CLR 80.6 73.4 79% 85 29.84 0.0
14 20:15 Calm 10.00 Fair CLR 80.6 71.6 74% 85 29.83 0.0
14 19:55 N 5 10.00 Fair CLR 82.4 73.4 74% 88 29.83 0.0
14 19:35 NW 5 10.00 Fair CLR 82.4 71.6 70% 87 29.84 0.0
14 19:15 NW 3 10.00 Fair CLR 82.4 71.6 70% 87 29.85 0.0
14 18:55 NW 3 10.00 Fair CLR 82.4 73.4 74% 88 29.85 0.0
14 18:35 Calm 10.00 Fair CLR 82.4 73.4 74% 88 29.85 0.0
14 18:15 N 3 10.00 Fair CLR 82.4 73.4 74% 88 29.86 0.0
14 17:55 Calm 10.00 Fair CLR 84.2 73.4 70% 91 29.86 0.0
14 17:35 Calm 10.00 Mostly Cloudy BKN048 84.2 73.4 70% 91 29.86 0.0
14 17:15 N 3 10.00 Mostly Cloudy BKN046 82.4 71.6 70% 87 29.86 0.0
14 16:55 N 5 10.00 Fair CLR 82.4 71.6 70% 87 29.86 0.0
14 16:35 NW 3 10.00 Fair CLR 84.2 71.6 66% 90 29.86 0.0
14 16:15 Calm 10.00 Fair CLR 82.4 71.6 70% 87 29.86 0.0
14 15:55 NW 5 10.00 Fair CLR 82.4 71.6 70% 87 29.86 0.0
14 15:35 Calm 10.00 Fair CLR 82.4 71.6 70% 87 29.86 0.0
14 15:15 Calm 10.00 Fair CLR 82.4 71.6 70% 87 29.86 0.0
14 14:55 Calm 10.00 Partly Cloudy SCT029 SCT120 82.4 71.6 70% 87 29.86 0.0
14 14:35 Calm 10.00 Partly Cloudy SCT029 82.4 71.6 70% 87 29.86 0.0
14 14:15 Calm 10.00 Partly Cloudy SCT029 SCT110 82.4 71.6 70% 87 29.86 0.0
14 13:55 SW 5 10.00 Fair CLR 82.4 71.6 70% 87 29.86 0.0
14 13:35 Calm 10.00 Fair CLR 82.4 69.8 66% 86 29.86 0.0
14 13:15 Calm 10.00 Fair CLR 82.4 69.8 66% 86 29.87 0.0
14 12:55 SW 3 10.00 Fair CLR 80.6 69.8 70% 84 29.87 0.0
14 12:35 SW 3 10.00 Fair CLR 80.6 68 66% 83 29.88 0.0
14 12:15 Calm 10.00 Fair CLR 80.6 68 66% 83 29.89 0.0
14 11:55 SW 3 10.00 Mostly Cloudy BKN038 78.8 68 70% 81 29.9 0.0
14 11:35 SW 3 10.00 Overcast OVC038 78.8 68 70% 81 29.91 0.0
14 11:15 SW 5 10.00 Overcast BKN038 OVC046 78.8 68 70% 81 29.92 0.0
14 10:55 W 6 10.00 Mostly Cloudy BKN043 78.8 68 70% 81 29.92 0.0
14 10:35 SW 8 10.00 Fair CLR 78.8 66.2 65% 81 29.91 0.0
14 10:15 SE 3 10.00 Partly Cloudy SCT047 77 66.2 69% 79 29.89 0.0
14 09:55 W 5 10.00 Partly Cloudy SCT047 75.2 66.2 74% 77 29.92 0.0
14 09:35 SW 5 10.00 Fair CLR 75.2 66.2 74% 77 29.92 0.0
14 09:15 S 5 10.00 Fair CLR 73.4 66.2 78% 29.9 0.0
14 08:55 S 6 10.00 Fair CLR 73.4 64.4 74% 29.9 0.0
14 08:35 SW 3 10.00 Fair CLR 71.6 64.4 78% 29.89 0.0
14 08:15 Calm 10.00 Fair CLR 71.6 64.4 78% 29.9 0.0
14 07:55 SW 3 10.00 Fair CLR 69.8 64.4 83% 29.89 0.0
14 07:35 Calm 10.00 Fair CLR 69.8 64.4 83% 29.89 0.0
14 07:15 Calm 10.00 Fair CLR 68 62.6 83% 29.89 0.0
14 06:55 Calm 10.00 Fair CLR 68 62.6 83% 29.9 0.0
14 06:35 Calm 10.00 Fair CLR 66.2 62.6 88% 29.9 0.0
Date Time (cdt) Wind (mph) Vis. (mi.) Weather Sky Cond. Air Dwpt Max. Min. Relative Humidity Wind Chill (°F) Heat Index (°F) altimeter (in) sea level (mb) 1 hr 3 hr 6 hr
6 hour
Temperature (ºF) Pressure Precipitation (in)